1513638000.35,46400,6.88,73112.8,-17.31,-47.85,-48.07,0,*67
1513638001.57,46401,6.88,73116.5,-17.31,-47.85,-48.07,0,*66
1513638002.81,46402,6.88,73114.5,-17.31,-47.65,-47.71,0,*65
1513638004.02,46403,6.81,73108.3,-17.31,-47.65,-47.85,0,*6F
1513638005.29,46404,6.88,73112.0,-17.33,-47.99,-48.13,0,*69
1513638006.54,46405,6.88,73112.0,-17.31,-47.71,-47.93,0,*6B
1513638007.78,46406,6.88,73112.5,-17.31,-47.71,-48.07,0,*6A
1513638009.04,46407,6.88,73112.5,-17.31,-47.71,-47.93,0,*69
1513638010.26,46408,6.88,73112.5,-17.31,-48.21,-48.21,0,*6A
1513638011.52,46409,6.81,73108.0,-17.31,-47.93,-48.13,0,*6C
1513638012.78,46410,6.88,73114.3,-17.33,-47.51,-47.71,0,*63
1513638014.05,46411,6.88,73112.0,-17.33,-47.57,-47.71,0,*64
1513638015.28,46412,6.81,73110.5,-17.31,-47.65,-47.93,0,*68
1513638016.54,46413,6.81,73112.5,-17.31,-47.93,-47.93,0,*60
1513638017.8,46414,6.81,73110.5,-17.31,-47.71,-47.71,0,*67
1513638019.05,46415,6.88,73114.0,-17.31,-47.71,-47.71,0,*66
1513638020.29,46416,6.81,73112.8,-17.31,-47.85,-47.93,0,*62
1513638021.54,46417,6.88,73116.0,-17.31,-47.85,-48.13,0,*64
1513638022.76,46418,6.88,73110.8,-17.31,-47.85,-48.07,0,*6E
1513638024.05,46419,6.81,73106.8,-17.33,-47.93,-48.13,0,*6F
1513638025.27,46420,6.88,73108.5,-17.31,-47.85,-48.07,0,*65
1513638026.54,46421,6.88,73108.5,-17.33,-47.99,-48.13,0,*6E
1513638027.76,46422,6.88,73112.5,-17.31,-47.85,-48.07,0,*67
1513638029.05,46423,6.81,73108.0,-17.33,-47.93,-48.13,0,*66
1513638030.32,46424,6.88,73108.5,-17.33,-47.79,-47.99,0,*68
1513638031.58,46425,6.81,73108.0,-17.33,-47.99,-48.13,0,*6A
1513638032.83,46426,6.88,73110.0,-17.31,-47.99,-48.13,0,*6B
1513638034.12,46427,6.88,73110.8,-17.33,-47.93,-48.13,0,*62
1513638035.38,46428,6.81,73110.5,-17.33,-47.99,-48.13,0,*67
1513638036.64,46429,6.88,73114.3,-17.33,-47.71,-47.99,0,*6D
1513638037.88,46430,6.81,73110.0,-17.31,-47.79,-47.99,0,*6F
1513638039.15,46431,6.88,73112.3,-17.33,-47.99,-48.13,0,*6F
1513638040.37,46432,6.88,73114.5,-17.31,-47.85,-48.07,0,*66
1513638041.63,46433,6.81,73112.8,-17.33,-47.93,-47.99,0,*6A
1513638042.87,46434,6.88,73116.5,-17.33,-47.99,-48.21,0,*6B
1513638044.14,46435,6.81,73112.0,-17.33,-47.99,-48.13,0,*6B
1513638045.41,46436,6.88,73118.5,-17.35,-48.13,-48.13,0,*63
1513638046.7,46437,6.88,73116.0,-17.33,-47.93,-48.13,0,*63
1513638047.94,46438,6.88,73116.8,-17.37,-47.99,-48.21,0,*63
1513638049.17,46439,6.81,73112.3,-17.35,-47.71,-47.99,0,*6A
1513638050.41,46440,6.88,73116.3,-17.35,-47.79,-47.99,0,*6C
1513638051.68,46441,6.88,73116.0,-17.33,-47.79,-47.99,0,*6B
1513638052.92,46442,6.81,73114.3,-17.35,-47.99,-48.13,0,*6D
1513638054.13,46443,6.81,73116.8,-17.35,-47.51,-47.57,0,*67
1513638055.37,46444,6.81,73114.8,-17.35,-47.51,-47.71,0,*64
1513638056.61,46445,6.88,73118.0,-17.35,-47.57,-47.79,0,*6B
1513638057.85,46446,6.81,73114.0,-17.35,-47.51,-47.79,0,*6E
1513638059.08,46447,6.88,73114.8,-17.35,-47.71,-47.99,0,*63
1513638060.29,46448,6.88,73114.0,-17.35,-47.51,-47.57,0,*6C
1513638061.5,46449,6.88,73114.0,-17.35,-47.51,-47.57,0,*6D
1513638062.76,46450,6.88,73112.3,-17.33,-47.51,-47.71,0,*67
1513638064.02,46451,6.88,73114.8,-17.33,-47.57,-47.93,0,*6C
1513638065.31,46452,6.88,73114.0,-17.33,-47.71,-48.13,0,*6C
1513638066.55,46453,6.81,73116.0,-17.33,-47.99,-48.21,0,*6A
1513638067.77,46454,6.81,73112.3,-17.31,-47.85,-48.07,0,*66
1513638069.06,46455,6.81,73114.5,-17.33,-47.93,-48.13,0,*67
1513638070.33,46456,6.88,73118.0,-17.35,-47.79,-48.13,0,*66
1513638071.63,46457,6.88,73118.3,-17.33,-48.13,-48.13,0,*62
1513638072.89,46458,6.88,73118.5,-17.33,-47.79,-47.99,0,*63
1513638074.12,46459,6.88,73116.3,-17.35,-47.71,-47.99,0,*6C
1513638075.39,46460,6.81,73112.8,-17.37,-47.79,-48.07,0,*64
1513638076.64,46461,6.81,73108.3,-17.37,-47.85,-48.07,0,*66
1513638077.87,46462,6.88,73112.5,-17.35,-47.93,-47.99,0,*68
1513638079.11,46463,6.88,73114.0,-17.35,-47.79,-47.99,0,*6D
1513638080.37,46464,6.88,73114.8,-17.35,-47.71,-48.13,0,*6F
1513638081.61,46465,6.81,73114.8,-17.35,-47.93,-47.99,0,*6F
1513638082.87,46466,6.88,73114.5,-17.35,-47.71,-47.71,0,*66
1513638084.11,46467,6.88,73112.0,-17.35,-47.79,-47.99,0,*69
1513638085.37,46468,6.88,73112.8,-17.35,-47.71,-47.79,0,*60
1513638086.63,46469,6.81,73110.3,-17.37,-47.79,-47.99,0,*65
1513638087.88,46470,6.88,73110.5,-17.37,-47.99,-48.07,0,*6B
1513638089.1,46471,6.81,73106.0,-17.35,-47.85,-48.07,0,*65
1513638090.33,46472,6.88,73108.5,-17.35,-47.71,-47.99,0,*65
1513638091.59,46473,6.81,73110.3,-17.37,-47.71,-47.99,0,*66
1513638092.83,46474,6.81,73112.8,-17.35,-47.79,-47.99,0,*6B
1513638094.06,46475,6.81,73112.0,-17.35,-47.71,-47.99,0,*62
1513638095.29,46476,6.81,73114.0,-17.37,-47.57,-47.65,0,*64
1513638096.56,46477,6.81,73114.3,-17.37,-47.45,-47.57,0,*67
1513638097.79,46478,6.88,73112.3,-17.37,-47.65,-47.85,0,*65
1513638099.03,46479,6.81,73110.8,-17.35,-47.79,-47.99,0,*66
1513638100.28,46480,6.81,73110.5,-17.37,-47.99,-48.07,0,*64
1513638101.53,46481,6.88,73112.0,-17.35,-47.71,-47.93,0,*63
1513638102.77,46482,6.81,73110.3,-17.35,-47.93,-47.99,0,*66
1513638104.01,46483,6.88,73110.8,-17.35,-47.79,-47.99,0,*63
1513638105.26,46484,6.88,73112.0,-17.37,-47.85,-48.07,0,*6D
1513638106.52,46485,6.81,73108.0,-17.37,-47.79,-47.99,0,*67
1513638107.75,46486,6.88,73112.3,-17.35,-47.71,-47.99,0,*6E
1513638109.0,46487,6.88,73112.0,-17.37,-47.99,-48.07,0,*63
1513638110.24,46488,6.88,73110.8,-17.37,-48.07,-48.21,0,*60
1513638111.51,46489,6.81,73108.8,-17.35,-47.93,-48.13,0,*60
1513638112.72,46490,6.81,73106.8,-17.35,-47.57,-47.99,0,*6D
1513638113.97,46491,6.81,73110.8,-17.37,-48.07,-48.07,0,*6C
1513638115.24,46492,6.81,73110.3,-17.35,-47.79,-47.79,0,*6D
1513638116.47,46493,6.81,73108.5,-17.35,-47.57,-47.93,0,*64
1513638117.71,46494,6.81,73104.8,-17.35,-47.57,-47.93,0,*63
1513638118.94,46495,6.81,73104.3,-17.35,-47.57,-47.93,0,*62
1513638120.18,46496,6.81,73106.8,-17.37,-47.57,-47.65,0,*6A
1513638121.42,46497,6.81,73112.8,-17.35,-47.79,-47.99,0,*66
1513638122.68,46498,6.88,73118.0,-17.35,-47.93,-47.93,0,*67
1513638123.95,46499,6.81,73112.5,-17.37,-47.79,-48.07,0,*62
1513638125.24,46500,6.81,73114.0,-17.37,-47.45,-47.79,0,*6A
1513638126.48,46501,6.88,73112.3,-17.35,-47.57,-47.79,0,*6A
1513638127.74,46502,6.88,73114.8,-17.35,-47.71,-47.93,0,*69
1513638128.98,46503,6.88,73118.3,-17.35,-47.37,-47.51,0,*64
1513638130.22,46504,6.81,73112.8,-17.35,-47.51,-47.71,0,*61
1513638131.49,46505,6.88,73114.8,-17.37,-47.79,-48.07,0,*66
1513638132.76,46506,6.81,73114.0,-17.37,-47.79,-48.07,0,*65
1513638133.99,46507,6.88,73116.0,-17.35,-47.79,-47.99,0,*6E
1513638135.23,46508,6.81,73114.3,-17.37,-47.99,-48.21,0,*61
1513638136.48,46509,6.88,73114.8,-17.35,-47.79,-47.99,0,*60
1513638137.72,46510,6.81,73112.8,-17.35,-47.99,-48.13,0,*6B
1513638138.99,46511,6.88,73118.8,-17.37,-47.79,-47.85,0,*66
1513638140.23,46512,6.88,73116.0,-17.37,-47.85,-48.07,0,*63
1513638141.48,46513,6.88,73114.8,-17.37,-47.85,-48.07,0,*62
1513638142.75,46514,6.88,73114.8,-17.37,-47.79,-48.07,0,*66
1513638143.99,46515,6.81,73112.8,-17.37,-47.85,-48.07,0,*64
1513638145.26,46516,6.88,73118.3,-17.37,-47.79,-48.07,0,*64
1513638146.5,46517,6.81,73112.3,-17.37,-47.99,-48.07,0,*6B
1513638147.77,46518,6.88,73120.0,-17.37,-47.79,-47.99,0,*62
1513638149.0,46519,6.88,73116.5,-17.37,-47.65,-47.85,0,*63
1513638150.27,46520,6.81,73120.3,-17.35,-47.79,-47.93,0,*61
1513638151.53,46521,6.81,73116.5,-17.37,-47.79,-47.99,0,*68
1513638152.77,46522,6.81,73118.5,-17.35,-47.37,-47.57,0,*61
1513638154.06,46523,6.81,73116.0,-17.37,-47.45,-47.79,0,*6B
1513638155.3,46524,6.88,73120.3,-17.35,-47.57,-47.93,0,*69
1513638156.54,46525,6.81,73116.0,-17.37,-47.57,-47.85,0,*6D
1513638157.77,46526,6.81,73112.5,-17.37,-47.57,-47.65,0,*60
1513638159.01,46527,6.81,73112.5,-17.37,-47.65,-47.85,0,*6E
1513638160.25,46528,6.88,73118.3,-17.37,-47.99,-48.07,0,*67
1513638161.5,46529,6.81,73112.8,-17.37,-47.85,-48.07,0,*6B
1513638162.74,46530,6.81,73112.8,-17.37,-47.99,-48.21,0,*6A
1513638164.01,46531,6.81,73114.5,-17.37,-47.79,-48.07,0,*61
1513638165.22,46532,6.81,73110.3,-17.39,-47.57,-47.99,0,*68
1513638166.43,46533,6.88,73112.8,-17.39,-47.57,-47.65,0,*6A
1513638167.66,46534,6.81,73108.0,-17.37,-47.65,-47.85,0,*6C
1513638168.9,46535,6.81,73110.8,-17.37,-47.65,-47.99,0,*60
1513638170.11,46536,6.81,73110.8,-17.35,-47.57,-47.85,0,*6D
1513638171.34,46537,6.81,73112.0,-17.35,-47.85,-48.07,0,*66
1513638172.6,46538,6.81,73112.3,-17.37,-47.79,-47.85,0,*6D
1513638173.86,46539,6.81,73108.0,-17.37,-47.65,-47.79,0,*62
1513638175.16,46540,6.81,73108.3,-17.37,-47.45,-47.79,0,*6E
1513638176.37,46541,6.88,73112.8,-17.39,-47.65,-47.85,0,*60
1513638177.62,46542,6.88,73114.3,-17.37,-47.85,-48.07,0,*66
1513638178.89,46543,6.81,73108.3,-17.37,-47.79,-48.07,0,*64
1513638180.13,46544,6.81,73112.8,-17.37,-47.85,-48.07,0,*60
1513638181.39,46545,6.81,73110.3,-17.37,-47.79,-47.99,0,*6A
1513638182.62,46546,6.81,73106.0,-17.39,-47.85,-48.07,0,*6C
1513638183.88,46547,6.88,73110.0,-17.37,-47.79,-47.99,0,*68
1513638185.14,46548,6.81,73110.0,-17.37,-47.79,-47.99,0,*67
1513638186.41,46549,6.81,73108.3,-17.37,-47.79,-48.07,0,*6E
1513638187.67,46550,6.81,73114.0,-17.37,-47.79,-47.99,0,*6E
1513638188.91,46551,6.88,73116.8,-17.37,-47.85,-47.99,0,*6C
1513638190.16,46552,6.81,73114.8,-17.37,-47.85,-48.07,0,*67
1513638191.4,46553,6.81,73112.5,-17.37,-47.99,-48.21,0,*6F
1513638192.64,46554,6.88,73114.0,-17.39,-47.79,-47.99,0,*64
1513638193.85,46555,6.81,73112.8,-17.39,-47.65,-48.07,0,*60
1513638195.13,46556,6.81,73112.5,-17.43,-47.93,-48.13,0,*62
1513638196.34,46557,6.88,73116.3,-17.39,-47.57,-47.85,0,*66
1513638197.59,46558,6.88,73116.8,-17.43,-47.79,-47.99,0,*65
1513638198.81,46559,6.88,73116.3,-17.43,-47.65,-47.99,0,*69
1513638200.04,46560,6.81,73112.8,-17.43,-47.85,-48.07,0,*65
1513638201.28,46561,6.81,73112.5,-17.39,-47.79,-48.07,0,*6A
1513638202.55,46562,6.88,73110.5,-17.39,-47.45,-47.79,0,*60
1513638203.8,46563,6.81,73108.8,-17.39,-47.79,-48.07,0,*68
1513638205.02,46564,6.88,73110.5,-17.39,-47.85,-48.07,0,*6C
1513638206.26,46565,6.81,73110.5,-17.39,-47.79,-47.85,0,*6B
1513638207.54,46566,6.81,73108.3,-17.43,-47.93,-48.13,0,*61
1513638208.76,46567,6.88,73114.3,-17.39,-47.99,-48.21,0,*66
1513638210.03,46568,6.81,73110.5,-17.43,-47.93,-48.13,0,*6F
1513638211.28,46569,6.81,73110.5,-17.39,-47.79,-48.07,0,*62
1513638212.5,46570,6.81,73110.5,-17.39,-47.85,-48.07,0,*69
1513638213.75,46571,6.81,73110.3,-17.43,-47.93,-48.07,0,*62
1513638214.96,46572,6.81,73108.8,-17.39,-47.57,-47.65,0,*6F
1513638216.18,46573,6.81,73114.0,-17.39,-47.85,-48.07,0,*6A
1513638217.46,46574,6.81,73112.3,-17.43,-48.13,-48.27,0,*62
1513638218.68,46575,6.88,73112.8,-17.43,-47.65,-47.85,0,*6A
1513638219.91,46576,6.81,73114.3,-17.43,-47.85,-48.07,0,*62
1513638221.16,46577,6.81,73116.0,-17.43,-47.85,-48.27,0,*61
1513638222.43,46578,6.81,73108.8,-17.43,-47.93,-48.13,0,*6E
1513638223.66,46579,6.81,73112.5,-17.43,-47.85,-48.07,0,*6D
1513638224.88,46580,6.81,73112.8,-17.43,-47.57,-47.57,0,*6E
1513638226.14,46581,6.88,73116.0,-17.43,-47.71,-47.93,0,*63
1513638227.36,46582,6.81,73114.3,-17.43,-47.65,-47.85,0,*62
1513638228.58,46583,6.81,73110.5,-17.43,-47.65,-47.85,0,*63
1513638229.82,46584,6.81,73108.3,-17.43,-47.65,-48.13,0,*64
1513638231.04,46585,6.81,73110.3,-17.43,-47.65,-48.07,0,*60
1513638232.3,46586,6.88,73112.3,-17.43,-47.85,-48.13,0,*68
1513638233.57,46587,6.81,73114.5,-17.43,-47.93,-48.13,0,*6E
1513638234.82,46588,6.88,73118.5,-17.39,-47.79,-48.07,0,*6D
1513638236.09,46589,6.81,73112.8,-17.43,-47.93,-48.13,0,*60
1513638237.34,46590,6.81,73112.3,-17.43,-47.79,-48.07,0,*69
1513638238.59,46591,6.81,73114.0,-17.43,-47.71,-48.07,0,*60
1513638239.84,46592,6.88,73116.0,-17.43,-47.93,-48.07,0,*6F
1513638241.11,46593,6.81,73112.8,-17.43,-47.93,-48.27,0,*6C
1513638242.36,46594,6.81,73112.5,-17.43,-48.07,-48.27,0,*69
1513638243.6,46595,6.81,73114.0,-17.43,-47.65,-47.93,0,*63
1513638244.9,46596,6.88,73118.3,-17.45,-48.13,-48.27,0,*68
1513638246.17,46597,6.81,73114.8,-17.45,-47.85,-48.27,0,*69
1513638247.41,46598,6.81,73114.8,-17.43,-47.65,-47.71,0,*62
1513638248.66,46599,6.81,73112.8,-17.43,-47.85,-48.13,0,*66
1513638249.95,46600,6.88,73112.5,-17.45,-47.93,-48.13,0,*64
1513638251.23,46601,6.81,73114.8,-17.45,-48.07,-48.13,0,*67
1513638252.49,46602,6.81,73116.5,-17.45,-47.71,-47.85,0,*6A
1513638253.76,46603,6.88,73116.8,-17.45,-47.85,-48.13,0,*60
1513638255.03,46604,6.81,73116.8,-17.45,-47.93,-48.07,0,*65
1513638256.32,46605,6.81,73114.8,-17.45,-47.71,-47.93,0,*6A
1513638257.61,46606,6.88,73118.3,-17.45,-47.71,-48.13,0,*6E
1513638258.88,46607,6.81,73114.8,-17.45,-47.85,-48.13,0,*64
1513638260.13,46608,6.81,73116.3,-17.45,-47.85,-48.07,0,*6E
1513638261.38,46609,6.81,73116.5,-17.47,-47.71,-47.93,0,*64
1513638262.64,46610,6.81,73114.3,-17.45,-47.65,-47.93,0,*6B
1513638263.93,46611,6.81,73112.8,-17.45,-47.93,-48.13,0,*64
1513638265.18,46612,6.88,73118.0,-17.45,-47.85,-48.07,0,*65
1513638266.43,46613,6.81,73118.5,-17.45,-47.85,-48.07,0,*64
1513638267.67,46614,6.88,73118.5,-17.45,-47.51,-47.65,0,*61
1513638268.93,46615,6.88,73118.3,-17.43,-47.71,-47.93,0,*6D
1513638270.2,46616,6.81,73114.3,-17.45,-47.85,-48.13,0,*64
1513638271.47,46617,6.81,73114.3,-17.45,-47.31,-47.45,0,*66
1513638272.72,46618,6.81,73116.0,-17.45,-47.51,-47.85,0,*63
1513638273.99,46619,6.81,73112.5,-17.45,-47.85,-48.13,0,*6B
1513638275.27,46620,6.88,73120.3,-17.45,-47.71,-47.93,0,*6D
1513638276.51,46621,6.81,73118.0,-17.45,-47.51,-47.65,0,*67
1513638277.77,46622,6.81,73118.3,-17.45,-47.51,-47.71,0,*61
1513638279.04,46623,6.88,73120.0,-17.45,-47.45,-47.65,0,*60
1513638280.31,46624,6.81,73116.5,-17.45,-47.09,-47.45,0,*6D
1513638281.54,46625,6.81,73118.0,-17.43,-47.65,-47.93,0,*6B
1513638282.79,46626,6.88,73120.3,-17.43,-47.71,-48.07,0,*6F
1513638284.0,46627,6.88,73122.5,-17.43,-47.65,-47.65,0,*60
1513638285.25,46628,6.81,73116.8,-17.45,-47.51,-47.85,0,*60
1513638286.51,46629,6.81,73116.0,-17.45,-47.71,-48.07,0,*66
1513638287.76,46630,6.81,73118.0,-17.45,-47.85,-48.07,0,*65
1513638289.02,46631,6.88,73120.3,-17.47,-47.71,-47.93,0,*6F
1513638290.31,46632,6.81,73120.3,-17.45,-47.93,-48.13,0,*65
1513638291.55,46633,6.81,73122.8,-17.45,-47.65,-47.85,0,*6D
1513638292.81,46634,6.81,73116.3,-17.45,-47.65,-47.93,0,*6D
1513638294.06,46635,6.88,73122.8,-17.45,-47.85,-48.07,0,*60
1513638295.33,46636,6.81,73116.5,-17.45,-47.85,-48.27,0,*61
1513638296.61,46637,6.81,73122.5,-17.45,-47.71,-47.93,0,*6B
1513638297.88,46638,6.81,73120.0,-17.45,-47.85,-48.13,0,*68
1513638299.13,46639,6.81,73122.5,-17.45,-47.85,-48.07,0,*6C
1513638300.43,46640,6.88,73124.0,-17.45,-47.93,-48.13,0,*60
1513638301.66,46641,6.81,73122.3,-17.45,-47.65,-47.85,0,*68
1513638302.95,46642,6.81,73122.8,-17.45,-47.71,-47.93,0,*69
1513638304.24,46643,6.81,73120.5,-17.45,-47.71,-48.13,0,*6F
1513638305.48,46644,6.81,73120.8,-17.47,-47.93,-48.21,0,*67
1513638306.71,46645,6.88,73122.5,-17.47,-47.71,-47.99,0,*66
1513638307.98,46646,6.81,73122.0,-17.45,-47.85,-48.13,0,*61
1513638309.25,46647,6.81,73116.5,-17.47,-47.79,-48.13,0,*61
1513638310.47,46648,6.81,73118.3,-17.47,-47.99,-48.21,0,*61
1513638311.71,46649,6.81,73116.3,-17.47,-47.93,-48.21,0,*6A
1513638312.93,46650,6.81,73116.8,-17.47,-47.99,-48.21,0,*68
1513638314.2,46651,6.81,73112.0,-17.47,-47.79,-48.13,0,*66
1513638315.45,46652,6.81,73114.8,-17.45,-47.85,-48.07,0,*61
1513638316.72,46653,6.81,73114.0,-17.47,-47.93,-48.13,0,*60
1513638317.93,46654,6.81,73112.5,-17.47,-47.99,-48.21,0,*6C
1513638319.2,46655,6.88,73118.0,-17.47,-47.71,-47.79,0,*69
1513638320.41,46656,6.81,73112.8,-17.47,-47.57,-47.99,0,*60
1513638321.67,46657,6.81,73114.3,-17.45,-47.71,-48.07,0,*6F
1513638322.91,46658,6.81,73116.0,-17.47,-47.57,-47.71,0,*68
1513638324.15,46659,6.81,73120.8,-17.47,-47.57,-47.79,0,*61
1513638325.42,46660,6.81,73116.5,-17.45,-47.51,-47.71,0,*67
1513638326.66,46661,6.81,73118.3,-17.47,-47.79,-47.99,0,*68
1513638327.93,46662,6.81,73118.0,-17.47,-47.79,-48.13,0,*66
1513638329.17,46663,6.81,73116.0,-17.47,-47.79,-47.99,0,*6A
1513638330.42,46664,6.81,73116.3,-17.47,-47.71,-47.93,0,*6F
1513638331.66,46665,6.81,73120.8,-17.47,-47.71,-47.99,0,*64
1513638332.89,46666,6.81,73120.0,-17.45,-47.51,-47.65,0,*64
1513638334.1,46667,6.81,73118.0,-17.47,-47.57,-47.99,0,*62
1513638335.4,46668,6.81,73118.3,-17.45,-47.93,-48.13,0,*6A
1513638336.66,46669,6.81,73118.5,-17.45,-47.65,-47.93,0,*65
1513638337.93,46670,6.81,73116.8,-17.47,-47.79,-48.13,0,*65
1513638339.17,46671,6.88,73116.3,-17.47,-47.79,-48.21,0,*65
1513638340.44,46672,6.88,73116.8,-17.45,-47.85,-48.13,0,*66
1513638341.66,46673,6.88,73120.3,-17.47,-47.99,-48.21,0,*69
1513638342.93,46674,6.81,73116.8,-17.47,-47.79,-48.13,0,*61
1513638344.16,46675,6.88,73122.5,-17.47,-47.71,-47.99,0,*65
1513638345.42,46676,6.81,73120.8,-17.49,-47.71,-47.93,0,*62
1513638346.69,46677,6.81,73120.0,-17.49,-47.79,-48.13,0,*6C
1513638347.95,46678,6.81,73122.5,-17.47,-47.71,-47.93,0,*62
1513638349.21,46679,6.81,73118.5,-17.47,-47.79,-47.93,0,*6B
1513638350.48,46680,6.81,73118.5,-17.49,-47.93,-48.13,0,*60
1513638351.74,46681,6.81,73118.0,-17.49,-47.71,-47.93,0,*6A
1513638352.98,46682,6.81,73118.3,-17.47,-47.79,-47.99,0,*65
1513638354.27,46683,6.88,73122.3,-17.45,-47.93,-48.13,0,*6F
1513638355.51,46684,6.81,73118.8,-17.47,-47.93,-47.99,0,*67
1513638356.73,46685,6.81,73118.8,-17.47,-47.99,-48.21,0,*60
1513638358.02,46686,6.81,73118.5,-17.51,-47.93,-48.13,0,*6F
1513638359.27,46687,6.81,73114.5,-17.49,-47.93,-48.21,0,*66
1513638360.5,46688,6.81,73116.5,-17.49,-47.93,-47.99,0,*65
1513638361.77,46689,6.81,73118.8,-17.49,-47.93,-48.13,0,*69
1513638362.99,46690,6.81,73118.5,-17.49,-47.99,-48.21,0,*6A
1513638364.24,46691,6.81,73118.3,-17.49,-47.93,-48.21,0,*61
1513638365.5,46692,6.88,73118.3,-17.49,-47.79,-47.93,0,*60
1513638366.74,46693,6.81,73116.8,-17.49,-47.93,-48.21,0,*63
1513638367.96,46694,6.81,73118.0,-17.49,-47.99,-48.21,0,*6E
1513638369.18,46695,6.81,73118.8,-17.49,-47.99,-48.21,0,*6F
1513638370.43,46696,6.81,73118.8,-17.51,-47.99,-48.21,0,*65
1513638371.7,46697,6.81,73118.3,-17.49,-47.93,-48.13,0,*66
1513638372.96,46698,6.81,73118.8,-17.51,-47.57,-47.71,0,*63
1513638374.24,46699,6.81,73120.8,-17.51,-47.79,-48.21,0,*64
1513638375.53,46700,6.81,73120.0,-17.51,-47.79,-48.13,0,*64
1513638376.83,46701,6.81,73116.5,-17.51,-47.93,-48.13,0,*61
1513638378.09,46702,6.81,73116.3,-17.51,-47.71,-47.99,0,*63
1513638379.36,46703,6.81,73116.0,-17.51,-47.93,-47.99,0,*6E
1513638380.6,46704,6.81,73116.8,-17.51,-47.99,-48.21,0,*6F
1513638381.9,46705,6.81,73118.8,-17.51,-47.93,-48.13,0,*65
1513638383.17,46706,6.88,73122.0,-17.49,-47.79,-48.13,0,*6B
1513638384.44,46707,6.81,73118.8,-17.51,-48.13,-48.21,0,*61
1513638385.71,46708,6.81,73118.8,-17.51,-47.93,-48.21,0,*69
1513638387.01,46709,6.81,73120.3,-17.51,-47.79,-48.13,0,*6D
1513638388.27,46710,6.81,73118.5,-17.51,-47.71,-47.99,0,*60
1513638389.51,46711,6.81,73122.0,-17.53,-47.85,-48.27,0,*62
1513638390.78,46712,6.81,73116.5,-17.53,-47.79,-48.27,0,*62
1513638392.0,46713,6.81,73120.8,-17.53,-47.99,-48.07,0,*6F
1513638393.21,46714,6.81,73116.3,-17.53,-47.85,-48.21,0,*61
1513638394.46,46715,6.88,73120.5,-17.53,-48.07,-48.27,0,*63
1513638395.68,46716,6.81,73118.3,-17.53,-47.99,-48.21,0,*6E
1513638396.92,46717,6.81,73122.3,-17.53,-48.07,-48.27,0,*61
1513638398.18,46718,6.81,73118.5,-17.55,-48.13,-48.49,0,*65
1513638399.4,46719,6.88,73122.8,-17.53,-47.99,-48.21,0,*61
1513638400.64,46720,6.81,73116.5,-17.53,-47.99,-48.27,0,*6D
1513638401.9,46721,6.81,73118.8,-17.55,-48.13,-48.49,0,*6F
1513638403.16,46722,6.81,73116.5,-17.55,-48.27,-48.49,0,*6B
1513638404.43,46723,6.81,73120.0,-17.55,-48.07,-48.27,0,*60
1513638405.7,46724,6.88,73122.5,-17.55,-47.85,-48.13,0,*65
1513638406.97,46725,6.81,73122.8,-17.55,-48.07,-48.27,0,*66
1513638408.27,46726,6.81,73116.5,-17.55,-48.13,-48.35,0,*63
1513638409.53,46727,6.88,73122.3,-17.55,-47.71,-48.07,0,*68
1513638410.82,46728,6.81,73116.0,-17.55,-47.93,-48.13,0,*6E
1513638412.09,46729,6.81,73120.0,-17.55,-47.85,-48.13,0,*68
1513638413.38,46730,6.81,73118.3,-17.55,-47.93,-48.35,0,*63
1513638414.62,46731,6.81,73116.5,-17.53,-47.79,-47.99,0,*69
1513638415.91,46732,6.81,73116.5,-17.55,-47.93,-48.13,0,*65
1513638417.21,46733,6.81,73118.5,-17.55,-47.93,-48.27,0,*63
1513638418.48,46734,6.81,73118.3,-17.55,-48.07,-48.27,0,*66
1513638419.72,46735,6.81,73116.8,-17.55,-47.85,-47.85,0,*65
1513638420.99,46736,6.81,73116.0,-17.55,-47.71,-48.07,0,*68
1513638422.26,46737,6.81,73122.8,-17.55,-47.85,-48.13,0,*67
1513638423.52,46738,6.81,73120.8,-17.55,-47.85,-47.93,0,*6F
1513638424.77,46739,6.81,73118.0,-17.55,-47.85,-48.07,0,*6C
1513638426.04,46740,6.81,73116.5,-17.55,-48.07,-48.13,0,*62
1513638427.31,46741,6.88,73122.8,-17.55,-48.07,-48.35,0,*67
1513638428.58,46742,6.81,73116.3,-17.55,-48.07,-48.27,0,*67
1513638429.85,46743,6.81,73120.3,-17.55,-48.07,-48.27,0,*66
1513638431.09,46744,6.81,73116.5,-17.57,-47.71,-47.85,0,*6A
1513638432.36,46745,6.81,73118.3,-17.55,-47.71,-47.85,0,*69
1513638433.63,46746,6.81,73116.5,-17.55,-47.85,-48.13,0,*61
1513638434.92,46747,6.81,73116.5,-17.55,-47.93,-48.27,0,*60
1513638436.16,46748,6.81,73112.3,-17.53,-48.07,-48.27,0,*6B
1513638437.43,46749,6.81,73116.3,-17.55,-48.13,-48.21,0,*6F
1513638438.68,46750,6.81,73114.3,-17.55,-47.85,-48.07,0,*63
1513638439.96,46751,6.81,73118.8,-17.55,-47.71,-47.93,0,*6B
1513638441.21,46752,6.81,73114.5,-17.55,-47.85,-48.07,0,*61
1513638442.45,46753,6.81,73118.8,-17.55,-47.85,-47.85,0,*65
1513638443.72,46754,6.81,73116.0,-17.55,-48.07,-48.27,0,*60
1513638444.99,46755,6.81,73116.5,-17.55,-48.07,-48.27,0,*61
1513638446.27,46756,6.88,73120.3,-17.55,-48.07,-48.35,0,*61
1513638447.49,46757,6.81,73116.5,-17.57,-47.85,-48.07,0,*66
1513638448.74,46758,6.81,73114.0,-17.57,-48.07,-48.13,0,*69
1513638449.96,46759,6.81,73116.3,-17.57,-48.07,-48.49,0,*67
1513638451.2,46760,6.88,73118.3,-17.57,-48.07,-48.27,0,*65
1513638452.45,46761,6.81,73118.5,-17.57,-48.07,-48.27,0,*64
1513638453.7,46762,6.81,73118.8,-17.61,-48.13,-48.41,0,*67
1513638454.92,46763,6.81,73122.5,-17.61,-48.21,-48.41,0,*67
1513638456.16,46764,6.81,73120.0,-17.57,-47.85,-47.93,0,*64
1513638457.41,46765,6.81,73122.0,-17.57,-47.85,-48.13,0,*62
1513638458.63,46766,6.81,73120.3,-17.61,-47.99,-48.21,0,*68
1513638459.88,46767,6.81,73122.5,-17.61,-47.99,-48.35,0,*6C
1513638461.12,46768,6.81,73120.0,-17.61,-47.93,-47.99,0,*60
1513638462.37,46769,6.81,73120.0,-17.57,-47.93,-48.07,0,*6C
1513638463.63,46770,6.81,73120.0,-17.61,-47.71,-47.93,0,*6F
1513638464.87,46771,6.81,73116.3,-17.61,-47.99,-48.35,0,*6B
1513638466.1,46772,6.81,73122.5,-17.57,-47.85,-48.07,0,*61
1513638467.36,46773,6.81,73120.3,-17.61,-47.93,-47.93,0,*60
1513638468.61,46774,6.81,73114.0,-17.61,-48.13,-48.21,0,*66
1513638469.88,46775,6.81,73118.3,-17.61,-48.13,-48.35,0,*62
1513638471.16,46776,6.81,73122.3,-17.61,-48.13,-48.35,0,*61
1513638472.42,46777,6.81,73124.3,-17.61,-47.79,-47.93,0,*60
1513638473.67,46778,6.81,73124.0,-17.61,-47.93,-47.99,0,*61
1513638474.91,46779,6.81,73120.8,-17.61,-47.99,-48.13,0,*67
1513638476.14,46780,6.81,73120.3,-17.57,-47.85,-48.07,0,*6C
1513638477.36,46781,6.81,73120.5,-17.61,-47.99,-48.21,0,*61
1513638478.58,46782,6.81,73120.3,-17.61,-47.99,-48.21,0,*62
1513638479.83,46783,6.81,73118.3,-17.61,-47.99,-48.35,0,*66
1513638481.05,46784,6.81,73118.3,-17.61,-47.99,-48.21,0,*64
1513638482.29,46785,6.81,73118.8,-17.57,-47.85,-47.93,0,*6B
1513638483.54,46786,6.81,73122.0,-17.61,-48.13,-48.21,0,*6B
1513638484.79,46787,6.81,73120.8,-17.61,-48.21,-48.35,0,*6E
1513638486.06,46788,6.81,73122.0,-17.61,-48.13,-48.13,0,*64
1513638487.28,46789,6.81,73120.3,-17.61,-47.99,-47.99,0,*65
1513638488.51,46790,6.88,73124.5,-17.61,-47.99,-48.21,0,*61
1513638489.75,46791,6.81,73124.0,-17.61,-47.79,-47.99,0,*62
1513638490.97,46792,6.81,73124.3,-17.61,-47.99,-48.21,0,*63
1513638492.26,46793,6.81,73120.8,-17.63,-47.79,-47.93,0,*68
1513638493.56,46794,6.81,73120.3,-17.63,-48.13,-48.35,0,*6F
1513638494.81,46795,6.81,73124.0,-17.63,-47.99,-48.21,0,*66
1513638496.09,46796,6.81,73126.5,-17.63,-47.71,-47.71,0,*69
1513638497.34,46797,6.81,73124.8,-17.63,-47.31,-47.31,0,*68
1513638498.58,46798,6.81,73122.5,-17.61,-47.57,-47.71,0,*61
1513638499.85,46799,6.81,73122.8,-17.61,-47.79,-47.93,0,*60